Weather History for Menominee, MI

Change the Weather History Date:

Wednesday, April 24, 2013

  Actual Average Record
Temperature  
Mean Temperature 40 °F -  
Max Temperature 51 °F 59 °F 74 °F (1962)
Min Temperature 28 °F 35 °F 22 °F (1971)
Degree Days  
Heating Degree Days 26    
Moisture  
Dew Point 22 °F    
Average Humidity 52    
Maximum Humidity 93    
Minimum Humidity 24    
Precipitation  
Precipitation 0.00 in - - ()
Sea Level Pressure  
Sea Level Pressure 29.95 in    
Wind  
Wind Speed 5 mph (WNW)    
Max Wind Speed 14 mph    
Max Gust Speed 21 mph    
Visibility 10 miles    
Events      
Averages and records for this station are not official NWS values.
T = Trace of Precipitation, MM = Missing Value Source: NWS Daily Summary

Daily Weather History Graph

Daily Weather History Graph

Search for Another Location

Airport:

Trip Planner

Search our weather history database for the weather conditions in past years. The results will help you decide how hot, cold, wet, or windy it might be!

Date:

Astronomy

Apr. 24, 2013 Rise Set
Actual Time 5:50 AM CDT 7:48 PM CDT
Civil Twilight 5:18 AM CDT 8:19 PM CDT
Nautical Twilight 4:39 AM CDT 8:58 PM CDT
Astronomical Twilight 3:57 AM CDT 9:41 PM CDT
Moon 6:49 PM CDT (4/24) 4:56 AM CDT (4/24)
Length of Visible Light 15h 01m
Length of Day
13h 57m
Waxing Gibbous, 98% of the Moon is Illuminated
Apr 24
Waxing Gibbous
Apr 25
Full
May 2
Last Quarter
May 9
New
May 17
First Quarter

Hourly Weather History & Observations

Time (CDT) Temp. Windchill Dew Point Humidity Pressure Visibility Wind Dir Wind Speed Gust Speed Precip Events Conditions
12:15 AM 33.8 °F - 24.8 °F 70% 29.98 in 10.0 mi Calm Calm - N/A   Clear
12:35 AM 33.8 °F 30.8 °F 24.8 °F 70% 29.98 in 10.0 mi NW 3.5 mph - N/A   Clear
12:55 AM 33.8 °F 29.6 °F 24.8 °F 70% 29.98 in 10.0 mi NW 4.6 mph - N/A   Clear
1:15 AM 33.8 °F 30.8 °F 24.8 °F 70% 29.98 in 10.0 mi NNW 3.5 mph - N/A   Clear
1:35 AM 32.0 °F 28.7 °F 24.8 °F 75% 29.98 in 10.0 mi NNW 3.5 mph - N/A   Clear
1:55 AM 32.0 °F 27.5 °F 24.8 °F 75% 29.97 in 10.0 mi NNW 4.6 mph - N/A   Clear
2:15 AM 32.0 °F 28.7 °F 24.8 °F 75% 29.97 in 10.0 mi NW 3.5 mph - N/A   Clear
2:35 AM 30.2 °F 25.4 °F 24.8 °F 80% 29.97 in 10.0 mi NNW 4.6 mph - N/A   Clear
2:55 AM 30.2 °F - 24.8 °F 80% 29.97 in 10.0 mi Calm Calm - N/A   Clear
3:15 AM 30.2 °F - 24.8 °F 80% 29.97 in 10.0 mi Calm Calm - N/A   Clear
3:35 AM 30.2 °F - 24.8 °F 80% 29.97 in 10.0 mi Calm Calm - N/A   Clear
3:55 AM 28.4 °F - 24.8 °F 86% 29.97 in 10.0 mi Calm Calm - N/A   Clear
4:15 AM 28.4 °F 24.6 °F 26.6 °F 93% 29.98 in 10.0 mi NW 3.5 mph - N/A   Clear
4:35 AM 30.2 °F 26.7 °F 24.8 °F 80% 29.98 in 10.0 mi NW 3.5 mph - N/A   Clear
4:55 AM 28.4 °F 24.6 °F 24.8 °F 86% 29.97 in 10.0 mi NW 3.5 mph - N/A   Clear
5:15 AM 28.4 °F 24.6 °F 24.8 °F 86% 29.97 in 10.0 mi NNW 3.5 mph - N/A   Clear
5:35 AM 28.4 °F 23.3 °F 24.8 °F 86% 29.97 in 10.0 mi NNW 4.6 mph - N/A   Clear
5:55 AM 28.4 °F 23.3 °F 24.8 °F 86% 29.98 in 10.0 mi NW 4.6 mph - N/A   Clear
6:15 AM 28.4 °F 23.3 °F 24.8 °F 86% 29.98 in 10.0 mi NW 4.6 mph - N/A   Clear
6:35 AM 28.4 °F 23.3 °F 24.8 °F 86% 29.98 in 10.0 mi NW 4.6 mph - N/A   Clear
6:55 AM 28.4 °F 24.6 °F 24.8 °F 86% 29.98 in 10.0 mi NW 3.5 mph - N/A   Clear
7:15 AM 30.2 °F 25.4 °F 26.6 °F 86% 29.98 in 10.0 mi NNW 4.6 mph - N/A   Clear
7:35 AM 30.2 °F 23.4 °F 24.8 °F 80% 29.98 in 10.0 mi NNW 6.9 mph - N/A   Clear
7:55 AM 33.8 °F 27.7 °F 24.8 °F 70% 29.99 in 10.0 mi NNW 6.9 mph - N/A   Clear
8:15 AM 33.8 °F 30.8 °F 24.8 °F 70% 29.99 in 10.0 mi NW 3.5 mph - N/A   Clear
8:35 AM 35.6 °F 31.7 °F 23.0 °F 60% 29.99 in 10.0 mi WNW 4.6 mph - N/A   Clear
8:55 AM 35.6 °F 32.8 °F 23.0 °F 60% 29.99 in 10.0 mi NW 3.5 mph - N/A   Clear
9:15 AM 37.4 °F 34.9 °F 23.0 °F 56% 29.98 in 10.0 mi WNW 3.5 mph - N/A   Clear
9:35 AM 39.2 °F 35.0 °F 24.8 °F 56% 29.98 in 10.0 mi WNW 5.8 mph - N/A   Clear
9:55 AM 39.2 °F 35.9 °F 21.2 °F 49% 29.97 in 10.0 mi WNW 4.6 mph - N/A   Clear
10:15 AM 42.8 °F 38.0 °F 19.4 °F 39% 29.97 in 10.0 mi NNW 8.1 mph - N/A   Clear
10:35 AM 42.8 °F 40.1 °F 17.6 °F 36% 29.96 in 10.0 mi NW 4.6 mph - N/A   Clear
10:55 AM 44.6 °F 40.7 °F 17.6 °F 34% 29.96 in 10.0 mi WNW 6.9 mph - N/A   Clear
11:15 AM 44.6 °F 39.7 °F 17.6 °F 34% 29.95 in 10.0 mi West 9.2 mph - N/A   Clear
11:35 AM 44.6 °F 40.2 °F 17.6 °F 34% 29.95 in 10.0 mi NNW 8.1 mph - N/A   Clear
11:55 AM 44.6 °F 39.7 °F 17.6 °F 34% 29.94 in 10.0 mi NNW 9.2 mph - N/A   Clear
12:15 PM 46.4 °F 44.3 °F 17.6 °F 32% 29.93 in 10.0 mi North 4.6 mph - N/A   Clear
12:35 PM 46.4 °F 41.9 °F 17.6 °F 32% 29.92 in 10.0 mi WNW 9.2 mph - N/A   Clear
12:55 PM 46.4 °F 41.9 °F 17.6 °F 32% 29.92 in 10.0 mi NW 9.2 mph - N/A   Clear
1:15 PM 48.2 °F - 15.8 °F 27% 29.91 in 10.0 mi WNW 9.2 mph - N/A   Clear
1:35 PM 48.2 °F - 17.6 °F 30% 29.91 in 10.0 mi WNW 6.9 mph - N/A   Partly Cloudy
1:55 PM 48.2 °F - 15.8 °F 27% 29.90 in 10.0 mi West 10.4 mph 18.4 mph N/A   Partly Cloudy
2:15 PM 48.2 °F - 15.8 °F 27% 29.91 in 10.0 mi West 6.9 mph - N/A   Clear
2:35 PM 50.0 °F - 17.6 °F 28% 29.90 in 10.0 mi NW 4.6 mph 20.7 mph N/A   Partly Cloudy
2:55 PM 51.8 °F - 17.6 °F 26% 29.90 in 10.0 mi West 10.4 mph 20.7 mph N/A   Partly Cloudy
3:15 PM 51.8 °F - 17.6 °F 26% 29.90 in 10.0 mi WNW 9.2 mph 17.3 mph N/A   Partly Cloudy
3:35 PM 51.8 °F - 15.8 °F 24% 29.90 in 10.0 mi West 11.5 mph 20.7 mph N/A   Scattered Clouds
3:55 PM 51.8 °F - 17.6 °F 26% 29.90 in 10.0 mi WSW 9.2 mph - N/A   Scattered Clouds
4:15 PM 51.8 °F - 17.6 °F 26% 29.90 in 10.0 mi WNW 13.8 mph 20.7 mph N/A   Scattered Clouds
4:35 PM 51.8 °F - 17.6 °F 26% 29.90 in 10.0 mi WNW 6.9 mph - N/A   Partly Cloudy
4:55 PM 51.8 °F - 19.4 °F 28% 29.90 in 10.0 mi WNW 8.1 mph - N/A   Clear
5:15 PM 51.8 °F - 17.6 °F 26% 29.91 in 10.0 mi WNW 6.9 mph 17.3 mph N/A   Scattered Clouds
5:35 PM 50.0 °F - 17.6 °F 28% 29.91 in 10.0 mi West 5.8 mph 19.6 mph N/A   Scattered Clouds
5:55 PM 51.8 °F - 19.4 °F 28% 29.91 in 10.0 mi WNW 10.4 mph - N/A   Mostly Cloudy
6:15 PM 50.0 °F - 19.4 °F 30% 29.91 in 10.0 mi West 8.1 mph 17.3 mph N/A   Partly Cloudy
6:35 PM 48.2 °F - 19.4 °F 32% 29.91 in 10.0 mi West 11.5 mph - N/A   Scattered Clouds
6:55 PM 48.2 °F - 19.4 °F 32% 29.91 in 10.0 mi North - - N/A   Partly Cloudy
7:15 PM 48.2 °F - 21.2 °F 34% 29.92 in 10.0 mi West 9.2 mph - N/A   Partly Cloudy
7:35 PM 48.2 °F - 21.2 °F 34% 29.92 in 10.0 mi West 8.1 mph - N/A   Mostly Cloudy
7:55 PM 46.4 °F 44.3 °F 21.2 °F 37% 29.93 in 10.0 mi West 4.6 mph - N/A   Overcast
8:15 PM 46.4 °F 45.2 °F 21.2 °F 37% 29.93 in 10.0 mi WSW 3.5 mph - N/A   Mostly Cloudy
8:35 PM 46.4 °F 44.3 °F 23.0 °F 40% 29.94 in 10.0 mi WSW 4.6 mph - N/A   Mostly Cloudy
8:55 PM 44.6 °F 43.1 °F 23.0 °F 43% 29.94 in 10.0 mi SW 3.5 mph - N/A   Scattered Clouds
9:55 PM 42.8 °F 39.3 °F 24.8 °F 49% 29.94 in 10.0 mi SW 5.8 mph - N/A   Scattered Clouds
10:15 PM 42.8 °F 39.3 °F 23.0 °F 46% 29.95 in 10.0 mi SW 5.8 mph - N/A   Partly Cloudy
10:35 PM 42.8 °F 40.1 °F 24.8 °F 49% 29.94 in 10.0 mi SSW 4.6 mph - N/A   Partly Cloudy
10:55 PM 42.8 °F 41.1 °F 24.8 °F 49% 29.93 in 10.0 mi SW 3.5 mph - N/A   Mostly Cloudy
11:15 PM 42.8 °F 40.1 °F 24.8 °F 49% 29.93 in 10.0 mi SSW 4.6 mph - N/A   Overcast
11:35 PM 42.8 °F 37.0 °F 26.6 °F 53% 29.93 in 10.0 mi SSW 10.4 mph - N/A   Overcast
11:55 PM 42.8 °F 40.1 °F 26.6 °F 53% 29.91 in 10.0 mi SSW 4.6 mph - N/A   Overcast